#timestamp,LO_Frequency,Hit,StdDev 
1659099615.9,286047000.8,N
1659099635.7,286047000.8,N
1659099655.6,286047001.2,N
1659099675.4,286046998.1,N
1659099695.2,286046998.2,N
1659099715.1,286047000.7,N
1659099716.0,286047000.7,N
1659099735.8,286047000.3,N
1659099755.7,286046998.2,N
1659099775.5,286047001.0,N
1659099795.3,286047000.2,N
1659099815.2,286047000.3,N
1659099835.0,286046999.9,N
1659099835.9,286046999.9,N
1659099855.7,286047000.9,N
1659099875.6,286047001.1,N
1659099895.4,286047000.0,N
1659099915.3,286046998.9,N
1659099935.1,286047000.4,N
1659099936.0,286047000.4,N
1659099955.8,286047000.7,N
1659099975.7,286046998.8,N
1659099995.5,286046998.5,N
1659100015.3,286046998.5,N
1659100035.2,286046998.1,N
1659100055.0,286047000.8,N
1659100055.9,286047000.8,N
1659100075.8,286046998.2,N
1659100095.6,286047000.8,N
1659100115.4,286047000.0,N
1659100135.3,286047000.3,N
1659100155.1,286047000.1,N
1659100175.9,286047002.4,N
1659100195.7,286047001.0,N
1659100215.5,286047001.2,N
1659100235.4,286047000.7,N
1659100255.2,286047000.8,N
1659100275.0,286047000.7,N
1659100275.9,286047000.7,N
1659100295.8,286047000.0,N
1659100315.6,286046999.8,N
1659100335.5,286046999.7,N
1659100355.3,286047002.7,N
1659100375.1,286046999.9,N
1659100395.9,286047000.6,N
1659100415.7,286047001.0,N
1659100435.5,286046998.8,N
1659100455.4,286047000.7,N
1659100475.2,286047000.4,N
1659100495.1,286047000.3,N
1659100496.0,286047000.3,N
1659100515.8,286046999.8,N
1659100535.6,286047001.0,N
1659100555.5,286047001.2,N
1659100575.3,286046998.6,N
1659100595.1,286046998.6,N
1659100615.9,286047001.2,N
1659100635.7,286046998.4,N
1659100655.6,286046998.8,N
1659100675.4,286046996.6,Y
1659100695.2,286046997.8,P
1659100715.1,286046996.5,N
1659100716.0,286046996.5,N
1659100735.8,286046999.6,N
1659100755.7,286046999.1,N
1659100775.5,286046999.2,N
1659100795.3,286046999.6,N
1659100815.2,286046997.1,N
1659100835.0,286046996.6,N
1659100835.9,286046996.6,N
1659100855.8,286046996.7,N
1659100875.6,286046999.6,N
1659100895.4,286046996.5,N
1659100915.3,286046996.5,N
1659100935.1,286046999.4,N
1659100955.8,286046996.5,N
1659100975.7,286046999.5,N
1659100995.5,286046999.6,N
1659101015.4,286046997.0,N
1659101035.2,286046998.9,N
1659101055.0,286046996.8,N
1659101055.9,286046996.8,N
1659101075.8,286046999.5,N
1659101095.6,286046999.3,N
1659101115.5,286046999.4,N
1659101135.3,286046996.8,N
1659101155.1,286046997.5,N
1659101175.9,286046998.4,N
1659101195.7,286046997.7,N
1659101215.5,286046997.4,N
1659101235.4,286046996.9,N
1659101255.2,286046996.5,N
1659101275.1,286046998.4,N
1659101276.0,286046998.4,N
1659101295.8,286046998.8,N
1659101315.6,286046996.9,N
1659101335.5,286046997.3,N
1659101355.3,286046997.1,N
1659101375.1,286046997.8,N
1659101395.9,286046999.5,N
1659101415.7,286046999.2,N
1659101435.6,286046999.2,N
1659101455.4,286046998.8,N
1659101475.2,286046998.1,N
1659101495.1,286046998.9,N
1659101496.0,286046998.9,N
1659101515.8,286046999.1,N
1659101535.7,286046996.7,Y
1659101555.5,286046998.5,P
1659101575.3,286047001.1,P
1659101595.2,286047000.4,N
1659101615.0,286047000.3,N
1659101615.9,286047000.3,N
1659101635.8,286047000.4,N
1659101655.6,286046998.1,N
1659101675.4,286047000.8,N
1659101695.3,286046999.1,N
1659101715.1,286046998.5,N
1659101735.8,286047000.9,N
1659101755.7,286047000.5,N
1659101775.5,286046998.7,N
1659101795.4,286046999.0,N
1659101815.2,286046999.0,N
1659101835.0,286046998.7,N
1659101835.9,286046998.7,N
1659101855.8,286046998.7,N
1659101875.6,286046998.2,N
1659101895.5,286047001.1,N
1659101915.3,286046998.8,N
1659101935.1,286046998.7,N
1659101955.9,286046998.7,N
1659101975.7,286046998.2,N
1659101995.5,286046997.0,N
1659102015.4,286046996.5,Y
1659102035.2,286046998.8,P
1659102055.1,286046998.7,P
1659102056.0,286046998.7,P
1659102075.8,286046998.9,Y
1659102095.6,286047000.9,P
1659102115.5,286046998.5,N
1659102135.3,286046998.6,N
1659102155.1,286047000.4,N
1659102175.9,286047000.7,N
1659102195.7,286047002.7,N
1659102215.6,286047001.9,N
1659102235.4,286046999.8,N
1659102255.2,286046999.8,N
1659102275.1,286047002.3,N
1659102276.0,286047002.3,N
1659102295.8,286047002.6,N
1659102315.7,286047001.3,N
1659102335.5,286047001.6,N
1659102355.3,286047001.8,N
1659102375.2,286047001.7,N
1659102395.9,286047003.8,N
1659102415.7,286047002.3,N
1659102435.6,286047002.3,N
1659102455.4,286047002.3,N
1659102475.3,286047004.4,Y
1659102495.1,286046999.7,P
1659102496.0,286046999.7,N
1659102515.8,286047000.7,N
1659102535.7,286047000.4,N
1659102555.5,286047000.4,N
1659102575.4,286047002.8,Y
1659102595.2,286047000.1,P
1659102615.0,286047000.4,N
1659102615.9,286047000.4,N
1659102635.8,286047000.7,Y
1659102655.6,286047000.8,P
1659102675.4,286046999.9,N
1659102695.3,286047000.7,N
1659102715.1,286047000.9,N
1659102735.9,286047000.2,N
1659102755.7,286046999.9,N
1659102775.5,286047002.4,Y
1659102795.4,286046999.9,P
1659102815.2,286047001.0,P
1659102835.0,286047001.0,N
1659102836.0,286047001.0,N
1659102855.8,286046998.4,Y
1659102875.6,286046998.3,P
1659102895.5,286046996.6,N
1659102915.3,286046997.5,N
1659102935.1,286046997.4,N
1659102955.9,286046996.6,N
1659102975.7,286046999.3,N
1659102995.6,286047000.8,N
1659103015.4,286047001.2,N
1659103035.2,286047000.8,N
1659103055.1,286047000.5,N
1659103056.0,286047000.5,N
1659103075.8,286047000.0,N
1659103095.6,286047000.3,N
1659103115.5,286047000.9,N
1659103135.3,286047000.9,N
1659103155.2,286047001.1,N
1659103175.9,286047001.2,N
1659103195.7,286047000.4,N
